星链-1210 (STARLINK-1210 )

导读 | 豆包AI

STARLINK-1210是美国太空探索技术公司(SpaceX)研发运营的星链(Starlink)卫星互联网项目卫星,于2020年2月17日发射入轨,属于星链V1.0版本卫星。该卫星运行在倾角53.054°的近地轨道,近地点约546千米,远地点约548千米,目前仍在轨正常工作,为全球范围提供低延迟高速宽带互联网接入服务,是星链巨型低轨星座的组成单元。

Basic Information
目录编号:
45207
目录名称:
STARLINK-1210
国际标识:
2020-012AF
轨道中心:
EARTH
卫星名称:
星链-1210
卫星全名:
星链-1210 (STARLINK-1210 )
卫星状态:
已陨落 最后检测时间 2026-03-04
发射日期:
2020-02-17 UTC
国别 :
美国 (US)
星等 :
--
Orbit Information
数据来源 国际轨道数据
星历时间: 2026-03-04T08:39:17+0800
轨道信息已过期55天
半长轴: 6540.008km
偏心率: 0.0006915
轨道倾角: 52.997°
近地点辐角 287.682°
升交点赤经 287.354°
平近点角 72.347°
近地点: 157.348km
远地点: 166.394km
周期: 87.726分钟
每日圈数: 16.414791
Detailed Information
固有亮度:
5
最大亮度:
2.5
卫星平台:
Starlink V1.0
覆盖范围:
全球
运营商:
太空探索技术公司
运营商所在国:
美国
制造商(研发单位):
太空探索技术公司
制造商所在国:
美国
使用方式:
暂无
Satellite Introduction
星链(Starlink)计划是由太空探索技术公司(SpaceX)提出的一个巨型低轨卫星互联网星座项目,计划在2019年至2024年间在太空搭建由约1.2万颗卫星组成的“星链”网络,其中1584颗将部署在地球上空550千米处的近地轨道,并从2020年开始工作。该卫星仍在工作。